This is the latest recevied weather packets stored in our database for station/object VE7GEL. If no packets are shown the sender has not sent any weather packets the latest 10 day(s).
| Time | Temp. | Humidity | Pressure | Rain* | Wind** | Luminosity | Snow |
|---|---|---|---|---|---|---|---|
| 1777713630 | 12.22° C | 84% | 1016 hPa | 0 mm | - | 0 W/m² | - |
| 1777713303 | 12.22° C | 85% | 1016.2 hPa | 0 mm | - | 0 W/m² | - |
| 1777712730 | 12.22° C | 86% | 1015.8 hPa | 0 mm | - | 0 W/m² | - |
| 1777711829 | 12.22° C | 86% | 1015.9 hPa | 0 mm | - | 0 W/m² | - |
| 1777711503 | 12.22° C | 86% | 1016.2 hPa | 0 mm | - | 0 W/m² | - |
| 1777710930 | 12.22° C | 85% | 1015.9 hPa | 0 mm | - | 0 W/m² | - |
| 1777710028 | 12.22° C | 86% | 1015.8 hPa | 0 mm | - | 0 W/m² | - |
| 1777709703 | 12.22° C | 86% | 1016.1 hPa | 0 mm | - | 0 W/m² | - |
| 1777709126 | 12.22° C | 85% | 1015.8 hPa | 0 mm | - | 0 W/m² | - |
| 1777708225 | 12.22° C | 84% | 1015.8 hPa | 0 mm | - | 0 W/m² | - |
| 1777707321 | 12.78° C | 82% | 1015.8 hPa | 0 mm | - | 0 W/m² | - |
| 1777706420 | 12.78° C | 79% | 1015.7 hPa | 0 mm | - | 0 W/m² | - |
| 1777706102 | 13.33° C | 79% | 1016 hPa | 0 mm | - | 0 W/m² | - |
| 1777705519 | 12.78° C | 79% | 1015.7 hPa | 0 mm | - | 0 W/m² | - |
| 1777705205 | 12.78° C | 79% | 1016 hPa | 0 mm | - | 0 W/m² | - |
| 1777704620 | 12.78° C | 78% | 1015.7 hPa | 0 mm | - | 0 W/m² | - |
| 1777704303 | 12.78° C | 78% | 1016 hPa | 0 mm | - | 0 W/m² | - |
| 1777703711 | 13.33° C | 78% | 1015.6 hPa | 0 mm | - | 0 W/m² | - |
| 1777703404 | 13.33° C | 77% | 1015.8 hPa | 0 mm | - | 0 W/m² | - |
| 1777702810 | 13.33° C | 77% | 1015.5 hPa | 0 mm | - | 0 W/m² | - |
| 1777701911 | 12.78° C | 77% | 1015.5 hPa | 0 mm | - | 0 W/m² | - |
| 1777701011 | 13.33° C | 77% | 1015.4 hPa | 0 mm | - | 0 W/m² | - |
| 1777700702 | 13.33° C | 76% | 1015.7 hPa | 0 mm | - | 0 W/m² | - |
| 1777700111 | 13.89° C | 72% | 1015.3 hPa | 0 mm | - | 0 W/m² | - |
| 1777699208 | 13.89° C | 70% | 1015.2 hPa | 0 mm | - | 0 W/m² | - |
* Rain latest hour (hover to see other rain measurements)
** Current wind speed in m/s (hover to see current wind gust speed)